This is the latest recevied weather packets stored in our database for station/object KF7ROW. If no packets are shown the sender has not sent any weather packets the latest 10 day(s).
| Time | Temp. | Humidity | Pressure | Rain* | Wind** | Luminosity | Snow |
|---|---|---|---|---|---|---|---|
| 1777328535 | 12.22° C | 82% | 1023.9 hPa | 0 mm | - | 248 W/m² | - |
| 1777328233 | 12.22° C | 82% | 1024.1 hPa | 0 mm | - | 252 W/m² | - |
| 1777327931 | 12.22° C | 82% | 1024 hPa | 0 mm | - | 259 W/m² | - |
| 1777327629 | 12.22° C | 81% | 1023.9 hPa | 0 mm | - | 266 W/m² | - |
| 1777327326 | 12.22° C | 81% | 1024 hPa | 0 mm | - | 287 W/m² | - |
| 1777327023 | 12.22° C | 80% | 1024 hPa | 0 mm | - | 293 W/m² | - |
| 1777326720 | 12.22° C | 80% | 1024 hPa | 0 mm | - | 322 W/m² | - |
| 1777326417 | 12.22° C | 82% | 1024 hPa | 0 mm | - | 285 W/m² | - |
| 1777326115 | 11.67° C | 81% | 1024.1 hPa | 0 mm | - | 311 W/m² | - |
| 1777325812 | 11.67° C | 84% | 1024.1 hPa | 0 mm | - | 308 W/m² | - |
| 1777325510 | 11.67° C | 84% | 1023.9 hPa | 0 mm | - | 272 W/m² | - |
| 1777325208 | 11.67° C | 84% | 1023.8 hPa | 0 mm | - | 253 W/m² | - |
| 1777324904 | 12.22° C | 84% | 1023.8 hPa | 0 mm | - | 311 W/m² | - |
| 1777324602 | 12.22° C | 83% | 1023.9 hPa | 0 mm | - | 362 W/m² | - |
| 1777324299 | 11.67° C | 83% | 1023.9 hPa | 0 mm | - | 333 W/m² | - |
| 1777323997 | 11.67° C | 84% | 1023.8 hPa | 0 mm | - | 287 W/m² | - |
| 1777323694 | 11.67° C | 83% | 1023.8 hPa | 0 mm | - | 286 W/m² | - |
| 1777323391 | 11.67° C | 83% | 1023.9 hPa | 0 mm | - | 288 W/m² | - |
| 1777323089 | 11.67° C | 82% | 1023.5 hPa | 0 mm | - | 267 W/m² | - |
| 1777322787 | 11.67° C | 83% | 1023.9 hPa | 0 mm | - | 183 W/m² | - |
| 1777322484 | 11.67° C | 84% | 1023.9 hPa | 0 mm | - | 186 W/m² | - |
| 1777322181 | 11.67° C | 84% | 1023.7 hPa | 0 mm | - | 179 W/m² | - |
| 1777321878 | 11.67° C | 82% | 1023.6 hPa | 0 mm | - | 141 W/m² | - |
| 1777321575 | 12.22° C | 83% | 1023.5 hPa | 0 mm | - | 107 W/m² | - |
| 1777321272 | 11.67° C | 83% | 1023.7 hPa | 0 mm | - | 141 W/m² | - |
* Rain latest hour (hover to see other rain measurements)
** Current wind speed in m/s (hover to see current wind gust speed)